TimeMST,TemperatureF,Dew PointF,Humidity,Sea Level PressureIn,VisibilityMPH,Wind Direction,Wind SpeedMPH,Gust SpeedMPH,PrecipitationIn,Events,Conditions,WindDirDegrees,DateUTC
12:53 AM,18.0,6.1,60,30.24,10.0,East,4.6,-,N/A,,Clear,80,2012-11-16 07:53:00
1:53 AM,17.1,6.1,62,30.23,10.0,Calm,Calm,-,N/A,,Clear,0,2012-11-16 08:53:00
2:53 AM,12.0,5.0,73,30.28,10.0,North,3.5,-,N/A,,Clear,360,2012-11-16 09:53:00
3:53 AM,12.9,5.0,71,30.26,10.0,Calm,Calm,-,N/A,,Clear,0,2012-11-16 10:53:00
4:53 AM,17.1,5.0,59,30.27,10.0,NNE,3.5,-,N/A,,Clear,30,2012-11-16 11:53:00
5:53 AM,14.0,3.9,64,30.29,10.0,Calm,Calm,-,N/A,,Clear,0,2012-11-16 12:53:00
6:53 AM,17.1,3.9,56,30.30,10.0,Calm,Calm,-,N/A,,Clear,0,2012-11-16 13:53:00
7:53 AM,17.1,5.0,59,30.29,10.0,Calm,Calm,-,N/A,,Clear,0,2012-11-16 14:53:00
8:53 AM,25.0,8.1,49,30.26,10.0,Calm,Calm,-,N/A,,Clear,0,2012-11-16 15:53:00
9:53 AM,33.1,7.0,34,30.22,10.0,Calm,Calm,-,N/A,,Clear,0,2012-11-16 16:53:00
10:53 AM,36.0,6.1,29,30.19,10.0,Variable,6.9,-,N/A,,Clear,0,2012-11-16 17:53:00
11:53 AM,37.0,8.1,30,30.13,10.0,South,8.1,-,N/A,,Mostly Cloudy,170,2012-11-16 18:53:00
12:53 PM,41.0,3.9,21,30.10,10.0,South,10.4,-,N/A,,Partly Cloudy,170,2012-11-16 19:53:00
1:53 PM,42.1,5.0,22,30.09,10.0,SW,3.5,-,N/A,,Mostly Cloudy,220,2012-11-16 20:53:00
2:53 PM,41.0,12.9,32,30.13,10.0,WSW,16.1,-,N/A,,Overcast,250,2012-11-16 21:53:00
3:53 PM,39.9,16.0,38,30.13,10.0,WNW,11.5,-,N/A,,Mostly Cloudy,290,2012-11-16 22:53:00
4:53 PM,33.1,15.1,48,30.16,10.0,ENE,3.5,-,N/A,,Clear,70,2012-11-16 23:53:00
5:53 PM,30.0,15.1,54,30.20,10.0,ENE,9.2,-,N/A,,Scattered Clouds,70,2012-11-17 00:53:00
6:53 PM,30.0,15.1,54,30.17,10.0,East,5.8,-,N/A,,Partly Cloudy,80,2012-11-17 01:53:00
7:53 PM,30.0,16.0,56,30.17,10.0,Variable,3.5,-,N/A,,Mostly Cloudy,0,2012-11-17 02:53:00
8:53 PM,28.0,16.0,61,30.13,10.0,ESE,3.5,-,N/A,,Clear,110,2012-11-17 03:53:00
9:53 PM,24.1,15.1,69,30.10,10.0,East,3.5,-,N/A,,Clear,80,2012-11-17 04:53:00
10:53 PM,26.1,16.0,66,30.07,10.0,East,6.9,-,N/A,,Clear,80,2012-11-17 05:53:00
11:53 PM,24.1,15.1,69,30.07,10.0,Calm,Calm,-,N/A,,Clear,0,2012-11-17 06:53:00